Printer-friendly version

IAU Minor Planet Center

Minor Planet Center

MPEC 2007-E68 : 2002 TS67

The following Minor Planet Electronic Circular may be linked-to from your own Web pages, but must not otherwise be redistributed electronically.


Read MPEC 2007-E67 Read MPEC 2007-E69


M.P.E.C. 2007-E68                                Issued 2007 Mar. 13, 21:14 UT

     The Minor Planet Electronic Circulars contain information on unusual
         minor planets and routine data on comets.  They are published
   on behalf of Commission 20 of the International Astronomical Union by the
          Minor Planet Center, Smithsonian Astrophysical Observatory,
                          Cambridge, MA 02138, U.S.A.

             Prepared using the Tamkin Foundation Computer Network

                              MPC@CFA.HARVARD.EDU
          URL http://cfa-www.harvard.edu/iau/mpc.html  ISSN 1523-6714

                                   2002 TS67

                           Revision to MPEC 2002-T58

Additional Observations:
     K02T67S HC2007 03 12.33909 12 04 06.86 +16 29 27.7                 EE068291
     K02T67S HC2007 03 12.34328 12 04 06.47 +16 29 29.5                 EE068291
     K02T67S HC2007 03 12.34743 12 04 06.23 +16 29 30.8                 EE068291
     K02T67S HC2007 03 13.37855 12 02 54.54 +16 36 27.4                 EE068291
     K02T67S HC2007 03 13.38685 12 02 53.92 +16 36 30.2                 EE068291

Observer details:
291 LPL/Spacewatch II.  Observer T. H. Bressi.  1.8-m f/2.7 reflector + CCD.

First and last observations above in comparison with prediction:
Residuals in seconds of arc (or two decimals in degrees), reference and Delta-T
070312 291 0.04+ 0.02-    070313 291 0.04+ 0.02-    MPO 43473   -0.12 day

Orbital elements:
2002 TS67                                                Earth MOID = 0.2246 AU
Epoch 2007 Apr. 10.0 TT = JDT 2454200.5                 MPC
M  84.06029              (2000.0)            P               Q
n   0.27451159     Peri.  322.86003     +0.73020966     -0.66283598
a   2.3447449      Node    79.51959     +0.66031926     +0.62241812
e   0.4918436      Incl.    9.69874     +0.17542043     +0.41622607
P   3.59           H   19.0           G   0.15           U   1
Residuals in seconds of arc
021007 644  0.2+  0.5-    021102 941  1.2+  0.2+    021201 560  0.2+  0.3+
021007 644  0.3+  0.5-    021102 941  0.9+  0.2-    021201 560  0.0   0.5+
021007 644  0.2+  0.7-    021102 941  0.6+  0.1-    021201 560  0.4-  0.1-
021007 620 (3.0-  1.3-)   021102 941  0.5-  0.0     021201 560  0.1+  0.2+
021007 620  0.3-  0.4-    021104 428  0.2+  0.3+    021203 608  0.3+  0.5-
021007 620  0.6+  0.4+    021104 428  0.6+  0.2-    021203 608  0.3+  0.4-
021008 670  0.3+  0.0     021105 644  0.6+  0.5+    021203 608  0.1-  0.5-
021008 670  1.9+  0.2+    021105 644  0.3+  0.5+    021204 170  0.3-  0.1-
021008 670  1.4-  0.7-    021105 644  0.3+  0.6+    021204 170  0.3+  1.0-
021008 670  0.3+  0.3+    021108 322  0.7+  0.3-    021204 170  0.4+  0.4-
021008 644  0.2+  0.2-    021108 322  0.5-  0.5-    021204 170  0.3-  0.4+
021008 644  0.2+  0.0     021108 322  0.4-  0.4-    021205 213  0.2-  0.0
021008 644  0.3+  0.1-    021109 176  1.9-  0.8+    021205 213  1.0-  0.2-
021008 428  1.2-  0.5+    021109 176  1.9-  0.6+    021208 113  0.1+  0.2-
021008 474  0.0   0.1-    021109 176  1.9-  0.3-    021208 113  0.4+  0.3-
021008 428  0.9-  0.1-    021112 649  0.1+  0.5+    021208 113  0.2+  0.1-
021008 474  0.1-  0.1+    021112 649  0.5+  0.0     021208 113  0.3+  0.1-
021008 474  0.0   0.1+    021112 649  0.1+  0.1+    021208 113  0.2+  0.3-
021009 854  0.2+  0.4-    021116 699  0.1+  0.2+    021209 084  0.3+  0.8+
021009 854  0.3+  0.2-    021116 644  0.1-  0.6-    021210 704  0.1+  0.3-
021009 854  0.1-  0.5-    021116 699  0.3-  0.1-    021210 704  0.0   0.1-
021009 854  0.6+  0.3-    021116 699  0.3-  0.1-    021210 704  0.7+  0.0
021009 854  0.1-  0.4-    021116 644  0.1-  0.6-    021210 704  0.0   0.2+
021009 474  0.2-  0.5-    021116 699  0.3+  0.0     021210 704  0.3-  0.2+
021009 474  0.3-  0.5-    021116 644  0.0   0.7-    021210 240  0.1+  0.0
021014 428  1.0+  0.2-    021121 170  1.4-  0.3+    021210 240  0.2+  0.1+
021014 428  1.2+  0.2+    021121 170  0.4+  0.1-    021210 240  0.5+  0.3-
021015 649  0.5-  0.4-    021121 170  0.9-  0.4+    021211 704  0.2-  0.3+
021015 649  0.3-  0.1-    021122 941  0.4-  0.4-    021211 704  0.1-  0.1+
021015 649  0.9+  0.3-    021122 941  0.2-  0.5+    021211 704  0.0   0.0
021019 644  0.4-  0.3+    021122 941  0.2-  0.2+    021211 704  0.3+  0.5+
021019 644  0.4-  0.5+    021122 941  0.2+  0.1+    021211 704  0.0   0.2+
021019 644  1.2-  0.4+    021122 941  0.4+  0.0     021211 704  0.5+  0.3+
021023 644  0.0   0.1+    021124 644  0.0   0.3+    021211 704  0.1-  0.0
021023 644  0.8+  0.2+    021124 644  0.1+  0.2+    021211 704  0.5+  0.2+
021023 644  0.2-  0.4+    021124 644  0.1+  0.3+    021211 704  0.1+  0.2-
021026 176  0.3-  0.1+    021125 670  0.4-  0.0     021211 704  0.2+  0.3+
021026 176  0.2-  0.2+    021125 670  0.4+  0.3-    021212 084  0.5+  0.1+
021026 176  0.1-  0.3+    021127 170  0.1+  0.2-    021224 084  0.1-  1.4+
021026 176  0.1-  0.6+    021127 170  0.2+  0.7-    021230 704  0.3+  0.1-
021026 176  0.0   0.6+    021127 170  1.1-  0.5-    021230 704  0.3+  0.1+
021028 704  0.1-  0.7+    021127 170  0.3-  0.4-    021230 704  0.0   0.2-
021028 704  0.2-  0.6+    021128 355  0.2+  1.0-    021230 704  0.3-  0.0
021028 704  0.0   0.3+    021128 355  0.5+  0.4-    021230 704  0.4+  0.5+
021028 704  0.2+  0.4+    021128 355  0.1-  0.8-    030105 704  0.1+  0.4-
021029 704  0.1+  0.2+    021128 355  0.5+  0.4-    030105 704  0.1+  0.2-
021029 704  0.0   0.3-    021129 084  0.3-  0.5+    030105 704  0.1+  0.3-
021029 704  0.2+  0.4-    021129 560  0.9-  0.1+    030105 704  0.3+  0.3+
021029 704  0.1-  0.4-    021129 560  0.1-  0.3-    030105 704  0.1-  0.4+
021029 704  0.9+  0.2-    021129 560  0.3+  0.0     070312 291  0.4+  0.1-
021029 428  0.3+  0.1+    021129 560  0.4+  0.3-    070312 291  0.9-  0.1-
021029 428  0.3-  0.4+    021201 704  0.3-  1.3+    070312 291  0.1-  0.4-
021029 428  0.1-  0.3+    021201 704  0.1-  0.3-    070313 291  0.5+  0.5+
021102 212  0.4-  0.3+    021201 704  0.3-  0.1-    070313 291  0.1+  0.0
021102 212 (2.6+  3.4-)   021201 704  0.2-  0.4-

Ephemeris:
2002 TS67                a,e,i = 2.34, 0.49, 10                  q = 1.1915
Date    TT    R. A. (2000) Decl.     Delta      r     Elong.  Phase     V
2007 03 11    12 05.66   +16 20.2    1.641    2.609   163.8     6.1    22.6
2007 03 21    11 54.13   +17 20.9    1.689    2.657   162.6     6.4    22.8
2007 03 31    11 43.43   +17 58.6    1.767    2.703   154.6     9.1    23.0
2007 04 10    11 34.54   +18 12.2    1.870    2.748   144.6    12.2    23.3
2007 04 20    11 28.05   +18 03.4    1.995    2.791   134.4    14.9    23.6

Gareth V. Williams           (C) Copyright 2007 MPC           M.P.E.C. 2007-E68

Read MPEC 2007-E67 Read MPEC 2007-E69


Our Web policy. Index to the CBAT/MPC/ICQ pages.


Valid HTML 4.01!